星链-4633 (STARLINK-4633 )

导读

STARLINK-4633是美国太空探索技术公司(SpaceX)于2022年10月5日发射的星链低轨互联网通信卫星,隶属于星链星座组网项目。星链旨在构建全球卫星互联网,该卫星进入预定轨道后,为全球范围尤其是偏远地区提供高速网络服务,目前已在轨道稳定运行,支撑星链系统的全球覆盖能力。

Basic Information
目录编号:
53964
目录名称:
STARLINK-4633
国际标识:
2022-125A
轨道中心:
EARTH
卫星名称:
星链-4633
卫星全名:
星链-4633 (STARLINK-4633 )
卫星状态:
在轨 (已飞行1351 天)
发射日期:
2022-10-05 UTC
国别 :
美国 (US)
星等 :
--
Orbit Information
数据来源 国际轨道数据 AOE轨道数据
星历时间 2026-06-17T12:57:51+0800
4小时前
查看轨道信息
2026-06-16T17:00:00+0800
1天前
查看轨道信息
半长轴 6917.918km 6917.922km
偏心率 0.0001441 0.0002077
轨道倾角 53.162° 53.157°
近地点辐角 91.370° 100.608°
升交点赤经 137.431° 141.168°
平近点角 268.746° 58.711°
近地点 538.784km 538.348km
远地点 540.778km 541.222km
周期 95.438分钟 95.438分钟
每日圈数 15.088277 15.088266
Detailed Information
固有亮度:
5
最大亮度:
2.5
卫星平台:
Starlink v1.5
覆盖范围:
全球
运营商:
太空探索技术公司
运营商所在国:
美国
制造商(研发单位):
太空探索技术公司
制造商所在国:
美国
使用方式:
暂无
Satellite Introduction
星链(Starlink)计划是由太空探索技术公司(SpaceX)提出的一个巨型低轨卫星互联网星座项目,计划在2019年至2024年间在太空搭建由约1.2万颗卫星组成的“星链”网络,其中1584颗将部署在地球上空550千米处的近地轨道,并从2020年开始工作。该卫星仍在工作。
2D Orbit Map
3D Orbit Map
Orbit Altitude Analysis Chart
Orbit Inclination Analysis Chart
Orbit Comprehensive Analysis Chart
View Comprehensive Chart